Flag for Bangladesh Weather past 2 weeks in Jessore, Bangladesh

Now
64 °F

Partly cloudy.


Feels Like: 64 °F
Forecast: 78 / 93 °F
Wind: 17 mph from Northeast

Location: Kunming Airport

Current Time: Sep 16, 2014 at 10:40:28 PM

Latest Report: Sep 16, 2014 at 10:00 PM


Visibility: N/A

Pressure: 30.01 "Hg

Humidity: 83%

Dew point: 59 °F

Location of JessoreLocation

Historic Weather in Jessore — Graph

°F

Jessore temperature yesterday

Maximum temperature yesterday: 79 °F (at 2:00 PM)
Minimum temperature yesterday: 63 °F (at 1:00 AM)
Average temperature yesterday: 69 °F

Past Weeks' High & Low Weather Summary

 TemperatureHumidityPressure
High79 °F (Sep 8, 1:00 PM)100% (Sep 2, 4:00 AM)30.27 "Hg (Sep 2, 4:00 AM)
Low59 °F (Sep 3, 6:00 AM)45% (Sep 9, 2:00 PM)29.92 "Hg (Sep 16, 3:00 PM)
Average68 °F81%30.11 "Hg
* Reported Sep 1 9:00 PM — Sep 16 9:00 PM, Jessore, Weather by CustomWeather, © 2014

Note: Actual official high and low records may vary slightly from our data, if they occured in-between our weather recording intervals... More about our weather records

Advertising

Jessore weather history for previous 24 hours

 ConditionsComfort  
Time TempWeatherWind HumidityBarometerVisibility
9:00 PM
Sep 16
64 °FPassing clouds.10 mph78%30.01 "HgN/A
8:00 PM66 °FPassing clouds.8 mph73%30.01 "HgN/A
7:00 PM66 °FPassing clouds.6 mph73%30.01 "HgN/A
6:00 PM70 °FPassing clouds.8 mph60%29.95 "HgN/A
5:00 PM70 °FPassing clouds.6 mph64%29.92 "HgN/A
4:00 PM73 °FPassing clouds.8 mph61%29.92 "HgN/A
3:00 PM77 °FScattered clouds.15 mph54%29.92 "HgN/A
2:00 PM79 °FScattered clouds.8 mph51%29.95 "HgN/A
1:00 PM77 °FScattered clouds.10 mph54%29.98 "HgN/A
12:00 PM77 °FScattered clouds.8 mph54%30.01 "HgN/A
11:00 AM72 °FScattered clouds.8 mph69%30.07 "HgN/A
10:00 AM72 °FScattered clouds.6 mph69%30.09 "HgN/A
9:00 AM70 °FPartly sunny.6 mph73%30.09 "HgN/A
8:00 AM66 °FFog.1 mph94%30.09 "Hg3 mi
7:00 AM64 °FFog.3 mph100%30.09 "Hg3 mi
6:00 AM63 °FFog.3 mph100%30.09 "Hg2 mi
5:00 AM61 °FFog.3 mph100%30.07 "Hg3 mi
4:00 AM64 °FPartly cloudy.6 mph94%30.07 "Hg4 mi
3:00 AM63 °FPartly cloudy.6 mph100%30.07 "Hg5 mi
2:00 AM64 °FPartly cloudy.6 mph94%30.07 "Hg5 mi
1:00 AM64 °FMostly cloudy.3 mph94%30.09 "Hg5 mi
12:00 AM63 °FPassing clouds.6 mph100%30.09 "Hg5 mi
11:00 PM
Sep 15
63 °FPassing clouds.6 mph100%30.09 "HgN/A
10:00 PM66 °FPassing clouds.6 mph83%30.09 "HgN/A
Weather by CustomWeather, © 2014

See weather overviewHow to use our weather pages